Location: Artiguedieu
(43.5000°N, 0.5454°E)
Time: 20:37:43
(UTC+00:00)

Transit 2A - Pass Details

Date: 27 July 2021
Orbit: 594 x 964 km, 66.7° (Epoch: 28 September)

Event Time Altitude Azimuth Distance (km) Brightness Sun altitude
Rises 06:19:20 0° 175° (S) 2,816 8.9 15.7°
Reaches altitude 10° 06:21:55 10° 159° (SSE) 1,929 8.3 16.1°
Maximum altitude 06:25:13 22° 109° (ESE) 1,349 8.6 16.7°
Drops below altitude 10° 06:28:39 10° 58° (ENE) 2,013 9.8 17.3°
Sets 06:31:25 0° 44° (NE) 2,977 9.9 17.8°
